Regional Weather Roundup
Issued by NWS

Home | Current Version | Previous Version | Text Only | Print | Product List | Glossary Off
Versions: 1 2 3 4 5 6 7 8 9 10 11 12 13 14 15 16 17 18 19 20 21 22 23 24 25 26 27

000
ASUS43 KDMX 151407
RWRIA

WEATHER ROUNDUP FOR IOWA
NATIONAL WEATHER SERVICE DES MOINES IA
900 AM CDT TUE APR 15 2014

NOTE: "FAIR" INDICATES FEW OR NO CLOUDS BELOW 12,000 FEET WITH NO
SIGNIFICANT WEATHER AND/OR OBSTRUCTIONS TO VISIBILITY.

* - THESE STATIONS ARE NOT NWS STATIONS...THUS NOT UNDER NWS
QUALITY CONTROL.  THEY ALSO DO NOT REPORT WEATHER SUCH
AS PRECIPITATION OR FOG.

IAZ001>003-012>014-020>022-031>034-043>046-151500-
   NORTHWEST IOWA

CITY           SKY/WX    TMP DP  RH WIND       PRES   REMARKS
CARROLL *      SUNNY     27  16  63 N8        30.20R WCI  18
CHEROKEE *     SUNNY     27  19  74 CALM      30.19S
DENISON *      SUNNY     27  18  69 E7        30.18F WCI  19
LE MARS *      SUNNY     27  16  63 E5        30.19F WCI  21
ORANGE CITY *  SUNNY     25  12  58 SE3       30.16F
SHELDON *      SUNNY     23  14  68 SE5       30.16F WCI  17
SIOUX CITY     SUNNY     26  18  71 E9        30.20S WCI  17
SPENCER        SUNNY     25  14  63 N5        30.18S WCI  19
STORM LAKE *   SUNNY     25  12  58 NE6       30.18F WCI  18
$$

IAZ055>058-069>071-079>083-090>094-151500-
   SOUTHWEST IOWA

CITY           SKY/WX    TMP DP  RH WIND       PRES   REMARKS
ATLANTIC *     SUNNY     28  21  74 NE7       30.20S WCI  21
AUDUBON *      SUNNY     28  18  64 NE5       30.20R WCI  23
COUNCIL BLFS * SUNNY     30  23  74 NE7       30.18F WCI  23
CRESTON *      SUNNY     28  23  80 N7        30.20R WCI  21
HARLAN  *      SUNNY     28  21  74 E8        30.23F WCI  20
LAMONI         SUNNY     31  21  66 N7        30.19R WCI  24
RED OAK *      SUNNY     30  23  74 NE8       30.20F WCI  23
SHENANDOAH *   SUNNY     32  25  74 VRB5      30.21F WCI  27
$$

IAZ047>049-059>061-072>074-084-151500-
   CENTRAL IOWA

CITY           SKY/WX    TMP DP  RH WIND       PRES   REMARKS
AMES           SUNNY     27  16  63 N12       30.20S WCI  17
ANKENY *       SUNNY     28  16  59 N7        30.20S WCI  21
CHARITON *     SUNNY     28  21  74 N6        30.20R WCI  22
DES MOINES     SUNNY     31  17  56 N7        30.21S WCI  24
GRINNELL*      SUNNY     28  18  64 NW13      30.19S WCI  18
KNOXVILLE *    MOSUNNY   30  18  59 N9        30.19F WCI  22
MARSHALLTOWN   SUNNY     27   9  46 NW14      30.18S WCI  16
NEWTON *       SUNNY     28  18  64 N8        30.19F WCI  20
PELLA *        SUNNY     30  18  59 N10       30.20F WCI  21
PERRY *          N/A     28  16  59 N8        30.21S WCI  20
$$

IAZ004>006-015-016-023>025-035-036-151500-
   NORTH CENTRAL IOWA

CITY           SKY/WX    TMP DP  RH WIND       PRES   REMARKS
ALGONA *       SUNNY     23   9  54 N10       30.19S WCI  12
CLARION *      SUNNY     25   9  50 NW14      30.18S WCI  13
ESTHERVILLE    SUNNY     23  12  62 NW10      30.17F WCI  12
FORT DODGE *   SUNNY     25  12  58 N8        30.20S WCI  16
MASON CITY     SUNNY     24  12  60 NW12      30.18R WCI  13
FOREST CITY *  SUNNY     25  12  58 NW10      30.16F WCI  15
IOWA FALLS *     N/A     25  10  54 NW13      30.19S WCI  13
$$

IAZ007>011-017>019-026>030-037>042-050>054-066-151500-
   NORTHEAST IOWA

CITY           SKY/WX    TMP DP  RH WIND       PRES   REMARKS
CEDAR RAPIDS   SUNNY     29  13  51 NW16      30.15S WCI  17
CHARLES CITY * SUNNY     25  16  68 NW12      30.16S WCI  14
CLINTON *      PTSUNNY   30  21  69 NW8       30.17R WCI  23
DECORAH *      MOSUNNY   27  16  63 N10       30.12R WCI  17
DUBUQUE        MOSUNNY   28  18  66 N7        30.11S WCI  21
MONTICELLO *   SUNNY     30  19  64 NW12      30.14S WCI  21
OELWEIN *      SUNNY    N/A N/A N/A NW10G18   30.16R
WATERLOO       SUNNY     26  14  60 NW10      30.17R WCI  16
$$

IAZ064-065-067-068-078-151500-
   EAST CENTRAL IOWA

CITY           SKY/WX    TMP DP  RH WIND       PRES   REMARKS
DAVENPORT      SUNNY     30  21  69 NW14      30.15R WCI  19
IOWA CITY      SUNNY     30  16  56 N13       30.19R WCI  20
MT. PLEASANT * SUNNY     32  16  51 NW10      30.19S WCI  24
MUSCATINE *    SUNNY     32  18  55 NW12G17   30.19S WCI  23
QUAD CITIES    SUNNY     32  19  58 NW14      30.16R WCI  22
$$

IAZ062-063-075>077-085>089-095>099-151500-
   SOUTHEAST IOWA

CITY           SKY/WX    TMP DP  RH WIND       PRES   REMARKS
BURLINGTON     SUNNY     32  17  54 N10       30.18R WCI  24
FAIRFIELD *    MOSUNNY   32  21  64 NW10      30.20R WCI  24
FORT MADISON * SUNNY     32  21  64 NW12      30.20S WCI  23
KEOKUK *       MOSUNNY   34  18  51 NW10      30.19S WCI  26
OSKALOOSA *      N/A     30  23  74 N10       30.20S WCI  21
CENTERVILLE *  SUNNY     32  23  69 NW7       30.20S WCI  26
OTTUMWA        PTSUNNY   30  21  69 NW10      30.19R WCI  21
WASHINGTON *   SUNNY     32  19  59 NW15      30.19S WCI  22
$$

ABBREVIATIONS USED IN REMARKS
   TC - TEMPERATURES IN CELSIUS
  WCI - WIND CHILL INDEX
   HX - HEAT INDEX
  VSB - VISIBILITY
$$




USA.gov is the U.S. government's official web portal to all federal, state and local government web resources and services.